Location: Newark
(46.7000°N, 60.6000°W)
Time: 21:23:21
(UTC+00:00)

Vanguard 1 Rocket - Pass Details

Date: 07 November 2020
Orbit: 656 x 4221 km, 34.3° (Epoch: 30 November)

Event Time Altitude Azimuth Distance (km) Brightness Sun altitude
Rises 14:34:30 0° 256° (WSW) 3,942 10.6 24.7°
Reaches altitude 10° 14:38:23 10° 240° (WSW) 2,558 9.9 25.0°
Maximum altitude 14:42:13 19° 196° (SSW) 1,719 10.0 25.2°
Drops below altitude 10° 14:45:25 10° 150° (SSE) 2,085 10.9 25.3°
Sets 14:48:10 0° 131° (SE) 2,965 10.9 25.4°
